Weather History for Joplin, MO

Change the Weather History Date:

Tuesday, December 11, 2012

  Actual Average Record
Temperature  
Mean Temperature 31 °F 38 °F  
Max Temperature 44 °F 48 °F 74 °F (1949)
Min Temperature 18 °F 28 °F 5 °F (1962)
Degree Days  
Heating Degree Days 34 27  
Month to date heating degree days 187 280  
Since 1 July heating degree days 973 1037  
Cooling Degree Days 0 0  
Month to date cooling degree days 0 0  
Year to date cooling degree days 2106 1698  
Moisture  
Dew Point 18 °F    
Average Humidity 60    
Maximum Humidity 85    
Minimum Humidity 40    
Precipitation  
Precipitation 0.00 in 0.10 in 1.27 in (1972)
Month to date precipitation 0.78 1.12  
Year to date precipitation 37.74 44.85  
Snow  
Snow 0.00 in - - ()
Month to date snowfall T  
Snow Depth 0.00 in    
Sea Level Pressure  
Sea Level Pressure 30.15 in    
Wind  
Wind Speed 8 mph (SSW)    
Max Wind Speed 15 mph    
Max Gust Speed 20 mph    
Visibility 10 miles    
Events Snow    
T = Trace of Precipitation, MM = Missing Value Source: NWS Daily Summary

Daily Weather History Graph

Daily Weather History Graph

Search for Another Location

Airport:

Trip Planner

Search our weather history database for the weather conditions in past years. The results will help you decide how hot, cold, wet, or windy it might be!

Date:

Astronomy

Dec. 11, 2012 Rise Set
Actual Time 7:21 AM CST 5:01 PM CST
Civil Twilight 6:52 AM CST 5:30 PM CST
Nautical Twilight 6:20 AM CST 6:02 PM CST
Astronomical Twilight 5:48 AM CST 6:34 PM CST
Moon 5:18 AM CST (12/11) 3:39 PM CST (12/11)
Length of Visible Light 10h 37m
Length of Day
9h 39m
Waning Crescent, 4% of the Moon is Illuminated
Dec 11
Waning Crescent
Dec 13
New
Dec 19
First Quarter
Dec 28
Full
Jan 4
Last Quarter

Hourly Weather History & Observations

Time (CST) Temp. Windchill Dew Point Humidity Pressure Visibility Wind Dir Wind Speed Gust Speed Precip Events Conditions
12:53 AM 19.9 °F 12.1 °F 14.0 °F 78% 30.12 in 10.0 mi South 5.8 mph - N/A   Clear
1:53 AM 19.0 °F 11.1 °F 15.1 °F 85% 30.10 in 10.0 mi South 5.8 mph - N/A   Clear
2:53 AM 19.0 °F 11.1 °F 15.1 °F 85% 30.12 in 10.0 mi South 5.8 mph - N/A   Clear
3:53 AM 21.0 °F 12.4 °F 16.0 °F 81% 30.12 in 10.0 mi SSW 6.9 mph - N/A   Clear
4:53 AM 21.0 °F 12.4 °F 16.0 °F 81% 30.11 in 10.0 mi SSW 6.9 mph - N/A   Clear
5:53 AM 21.0 °F 13.4 °F 15.1 °F 78% 30.11 in 10.0 mi SSW 5.8 mph - N/A   Clear
6:53 AM 21.9 °F 12.5 °F 15.1 °F 75% 30.13 in 10.0 mi SSW 8.1 mph - N/A   Clear
7:53 AM 24.1 °F 14.4 °F 15.1 °F 69% 30.13 in 10.0 mi South 9.2 mph - N/A   Clear
8:53 AM 30.0 °F 21.1 °F 17.1 °F 59% 30.15 in 10.0 mi SSW 10.4 mph - N/A   Clear
9:53 AM 34.0 °F 25.5 °F 16.0 °F 48% 30.17 in 9.0 mi SW 11.5 mph - 0.00 in Snow Light Snow
10:53 AM 37.0 °F 29.3 °F 17.1 °F 44% 30.17 in 9.0 mi WSW 11.5 mph - N/A   Clear
11:53 AM 39.0 °F 32.8 °F 18.0 °F 43% 30.16 in 10.0 mi SW 9.2 mph - N/A   Clear
12:53 PM 41.0 °F 35.2 °F 19.0 °F 41% 30.13 in 10.0 mi West 9.2 mph - N/A   Clear
1:53 PM 43.0 °F 38.2 °F 21.0 °F 42% 30.12 in 10.0 mi WSW 8.1 mph - N/A   Clear
2:53 PM 44.1 °F 39.0 °F 21.0 °F 40% 30.12 in 10.0 mi WSW 9.2 mph - N/A   Clear
3:53 PM 43.0 °F 38.2 °F 21.0 °F 42% 30.13 in 10.0 mi West 8.1 mph - N/A   Clear
4:53 PM 39.0 °F 34.8 °F 21.0 °F 49% 30.14 in 10.0 mi SW 5.8 mph - N/A   Clear
5:53 PM 36.0 °F 31.1 °F 21.0 °F 55% 30.15 in 10.0 mi South 5.8 mph - N/A   Clear
6:53 PM 35.1 °F 32.2 °F 21.0 °F 57% 30.17 in 10.0 mi South 3.5 mph - N/A   Clear
7:53 PM 33.1 °F 30.0 °F 19.9 °F 59% 30.19 in 10.0 mi South 3.5 mph - N/A   Clear
8:53 PM 30.0 °F 23.2 °F 19.0 °F 64% 30.19 in 10.0 mi South 6.9 mph - N/A   Clear
9:53 PM 30.0 °F 22.4 °F 18.0 °F 61% 30.20 in 10.0 mi South 8.1 mph - N/A   Clear
10:53 PM 30.0 °F 22.4 °F 16.0 °F 56% 30.21 in 10.0 mi South 8.1 mph - N/A   Clear
11:53 PM 30.2 °F 21.9 °F 15.8 °F 55% 30.20 in 10.0 mi South 9.2 mph - N/A   Clear